Location: Newark
(47.5833°N, 8.1500°E)
Time: 14:35:38
(UTC+00:00)

Tiros 1 - Pass Details

Date: 27 October 2020
Orbit: 630 x 664 km, 48.4° (Epoch: 29 November)

Event Time Altitude Azimuth Distance (km) Brightness Sun altitude
Exits shadow 03:46:42 43° 181° (S) 884 7.7 -23.7°
Maximum altitude 03:47:26 47° 152° (SSE) 833 7.8 -23.6°
Drops below altitude 10° 03:51:51 10° 79° (E) 2,009 10.8 -22.9°
Sets 03:54:14 0° 74° (ENE) 2,920 11.9 -22.5°
